<?xml version="1.0" encoding="UTF-8" standalone="no" ?>
<gpx xmlns="http://www.topografix.com/GPX/1/1" xmlns:xsi="http://www.w3.org/2001/XMLSchema-instance" xsi:schemaLocation="http://www.topografix.com/GPX/1/1 http://www.topografix.com/GPX/1/1/gpx.xsd" version="1.1" creator="VisuGPX - https://www.visugpx.com">
  <metadata>
    <name>Aravis, séjour du RCMF</name>
    <desc><![CDATA[Aravis, séjour du RCMF]]></desc>
  </metadata>
  <trk>
    <name><![CDATA[Beauregard2]]></name>
    <trkseg>
      <trkpt lat="45.87706" lon="6.40366">
        <ele>1462</ele>
        <time>2004-01-19T18:03:57Z</time>
      </trkpt>
      <trkpt lat="45.87749" lon="6.40342">
        <ele>1466</ele>
        <time>2004-01-19T18:03:57Z</time>
      </trkpt>
      <trkpt lat="45.87813" lon="6.40378">
        <ele>1460</ele>
        <time>2004-01-19T18:03:57Z</time>
      </trkpt>
      <trkpt lat="45.87751" lon="6.4034">
        <ele>1467</ele>
        <time>2004-01-19T18:03:57Z</time>
      </trkpt>
      <trkpt lat="45.87753" lon="6.40318">
        <ele>1471</ele>
        <time>2004-01-19T18:03:57Z</time>
      </trkpt>
      <trkpt lat="45.87848" lon="6.40314">
        <ele>1460</ele>
        <time>2004-01-19T18:03:57Z</time>
      </trkpt>
      <trkpt lat="45.87867" lon="6.4028">
        <ele>1463</ele>
        <time>2004-01-19T18:03:57Z</time>
      </trkpt>
      <trkpt lat="45.87949" lon="6.40233">
        <ele>1472</ele>
        <time>2004-01-19T18:03:57Z</time>
      </trkpt>
      <trkpt lat="45.88043" lon="6.40213">
        <ele>1543</ele>
        <time>2004-01-19T18:03:57Z</time>
      </trkpt>
      <trkpt lat="45.88114" lon="6.40235">
        <ele>1539</ele>
        <time>2004-01-19T18:03:57Z</time>
      </trkpt>
      <trkpt lat="45.88142" lon="6.40263">
        <ele>1536</ele>
        <time>2004-01-19T18:03:57Z</time>
      </trkpt>
      <trkpt lat="45.88142" lon="6.40288">
        <ele>1537</ele>
        <time>2004-01-19T18:03:57Z</time>
      </trkpt>
      <trkpt lat="45.88157" lon="6.40271">
        <ele>1544</ele>
        <time>2004-01-19T18:03:57Z</time>
      </trkpt>
      <trkpt lat="45.88182" lon="6.40318">
        <ele>1550</ele>
        <time>2004-01-19T18:03:57Z</time>
      </trkpt>
      <trkpt lat="45.88206" lon="6.40432">
        <ele>1579</ele>
        <time>2004-01-19T18:03:57Z</time>
      </trkpt>
      <trkpt lat="45.88279" lon="6.40383">
        <ele>1604</ele>
        <time>2004-01-19T18:03:57Z</time>
      </trkpt>
      <trkpt lat="45.88324" lon="6.40385">
        <ele>1585</ele>
        <time>2004-01-19T18:03:57Z</time>
      </trkpt>
      <trkpt lat="45.88378" lon="6.40306">
        <ele>1585</ele>
        <time>2004-01-19T18:03:57Z</time>
      </trkpt>
      <trkpt lat="45.88326" lon="6.40258">
        <ele>1585</ele>
        <time>2004-01-19T18:03:57Z</time>
      </trkpt>
      <trkpt lat="45.88382" lon="6.40269">
        <ele>1583</ele>
        <time>2004-01-19T18:03:57Z</time>
      </trkpt>
      <trkpt lat="45.88361" lon="6.40228">
        <ele>1583</ele>
        <time>2004-01-19T18:03:57Z</time>
      </trkpt>
      <trkpt lat="45.88363" lon="6.40188">
        <ele>1583</ele>
        <time>2004-01-19T18:03:57Z</time>
      </trkpt>
      <trkpt lat="45.88416" lon="6.40078">
        <ele>1588</ele>
        <time>2004-01-19T18:03:57Z</time>
      </trkpt>
      <trkpt lat="45.88453" lon="6.40044">
        <ele>1588</ele>
        <time>2004-01-19T18:03:57Z</time>
      </trkpt>
      <trkpt lat="45.88472" lon="6.39988">
        <ele>1592</ele>
        <time>2004-01-19T18:03:57Z</time>
      </trkpt>
      <trkpt lat="45.88431" lon="6.39808">
        <ele>1617</ele>
        <time>2004-01-19T18:03:57Z</time>
      </trkpt>
      <trkpt lat="45.88436" lon="6.39718">
        <ele>1627</ele>
        <time>2004-01-19T18:03:57Z</time>
      </trkpt>
      <trkpt lat="45.88479" lon="6.39698">
        <ele>1628</ele>
        <time>2004-01-19T18:03:57Z</time>
      </trkpt>
      <trkpt lat="45.88496" lon="6.39668">
        <ele>1635</ele>
        <time>2004-01-19T18:03:57Z</time>
      </trkpt>
      <trkpt lat="45.88479" lon="6.39638">
        <ele>1644</ele>
        <time>2004-01-19T18:03:57Z</time>
      </trkpt>
      <trkpt lat="45.88485" lon="6.39574">
        <ele>1658</ele>
        <time>2004-01-19T18:03:57Z</time>
      </trkpt>
      <trkpt lat="45.88472" lon="6.39582">
        <ele>1661</ele>
        <time>2004-01-19T18:03:57Z</time>
      </trkpt>
      <trkpt lat="45.88483" lon="6.3958">
        <ele>1663</ele>
        <time>2004-01-19T18:03:57Z</time>
      </trkpt>
      <trkpt lat="45.88554" lon="6.39713">
        <ele>1663</ele>
        <time>2004-01-19T18:03:57Z</time>
      </trkpt>
      <trkpt lat="45.88498" lon="6.39539">
        <ele>1663</ele>
        <time>2004-01-19T18:03:57Z</time>
      </trkpt>
      <trkpt lat="45.88509" lon="6.39548">
        <ele>1668</ele>
        <time>2004-01-19T18:03:57Z</time>
      </trkpt>
      <trkpt lat="45.88521" lon="6.39527">
        <ele>1673</ele>
        <time>2004-01-19T18:03:57Z</time>
      </trkpt>
      <trkpt lat="45.88526" lon="6.39559">
        <ele>1672</ele>
        <time>2004-01-19T18:03:57Z</time>
      </trkpt>
      <trkpt lat="45.88554" lon="6.39499">
        <ele>1681</ele>
        <time>2004-01-19T18:03:57Z</time>
      </trkpt>
      <trkpt lat="45.88547" lon="6.39306">
        <ele>1710</ele>
        <time>2004-01-19T18:03:57Z</time>
      </trkpt>
      <trkpt lat="45.88528" lon="6.39239">
        <ele>1706</ele>
        <time>2004-01-19T18:03:57Z</time>
      </trkpt>
      <trkpt lat="45.88451" lon="6.39082">
        <ele>1688</ele>
        <time>2004-01-19T18:03:57Z</time>
      </trkpt>
      <trkpt lat="45.88386" lon="6.38814">
        <ele>1713</ele>
        <time>2004-01-19T18:03:57Z</time>
      </trkpt>
      <trkpt lat="45.88365" lon="6.38776">
        <ele>1718</ele>
        <time>2004-01-19T18:03:57Z</time>
      </trkpt>
      <trkpt lat="45.88361" lon="6.38782">
        <ele>1719</ele>
        <time>2004-01-19T18:03:57Z</time>
      </trkpt>
      <trkpt lat="45.88346" lon="6.3867">
        <ele>1728</ele>
        <time>2004-01-19T18:03:57Z</time>
      </trkpt>
      <trkpt lat="45.88352" lon="6.38623">
        <ele>1730</ele>
        <time>2004-01-19T18:03:57Z</time>
      </trkpt>
      <trkpt lat="45.88315" lon="6.3849">
        <ele>1739</ele>
        <time>2004-01-19T18:03:57Z</time>
      </trkpt>
      <trkpt lat="45.88294" lon="6.38329">
        <ele>1730</ele>
        <time>2004-01-19T18:03:57Z</time>
      </trkpt>
      <trkpt lat="45.88208" lon="6.38115">
        <ele>1701</ele>
        <time>2004-01-19T18:03:57Z</time>
      </trkpt>
      <trkpt lat="45.882" lon="6.37984">
        <ele>1695</ele>
        <time>2004-01-19T18:03:57Z</time>
      </trkpt>
      <trkpt lat="45.88206" lon="6.37958">
        <ele>1693</ele>
        <time>2004-01-19T18:03:57Z</time>
      </trkpt>
      <trkpt lat="45.88223" lon="6.37945">
        <ele>1687</ele>
        <time>2004-01-19T18:03:57Z</time>
      </trkpt>
      <trkpt lat="45.88341" lon="6.3798">
        <ele>1691</ele>
        <time>2004-01-19T18:03:57Z</time>
      </trkpt>
      <trkpt lat="45.88403" lon="6.37958">
        <ele>1685</ele>
        <time>2004-01-19T18:03:57Z</time>
      </trkpt>
      <trkpt lat="45.88489" lon="6.37761">
        <ele>1686</ele>
        <time>2004-01-19T18:03:57Z</time>
      </trkpt>
      <trkpt lat="45.88532" lon="6.37724">
        <ele>1684</ele>
        <time>2004-01-19T18:03:57Z</time>
      </trkpt>
      <trkpt lat="45.88549" lon="6.37587">
        <ele>1693</ele>
        <time>2004-01-19T18:03:57Z</time>
      </trkpt>
      <trkpt lat="45.88519" lon="6.37512">
        <ele>1696</ele>
        <time>2004-01-19T18:03:57Z</time>
      </trkpt>
      <trkpt lat="45.88491" lon="6.37595">
        <ele>1692</ele>
        <time>2004-01-19T18:03:57Z</time>
      </trkpt>
      <trkpt lat="45.88526" lon="6.37668">
        <ele>1693</ele>
        <time>2004-01-19T18:03:57Z</time>
      </trkpt>
      <trkpt lat="45.88541" lon="6.37754">
        <ele>1688</ele>
        <time>2004-01-19T18:03:57Z</time>
      </trkpt>
      <trkpt lat="45.88504" lon="6.37892">
        <ele>1696</ele>
        <time>2004-01-19T18:03:57Z</time>
      </trkpt>
      <trkpt lat="45.88466" lon="6.37958">
        <ele>1699</ele>
        <time>2004-01-19T18:03:57Z</time>
      </trkpt>
      <trkpt lat="45.88414" lon="6.37977">
        <ele>1697</ele>
        <time>2004-01-19T18:03:57Z</time>
      </trkpt>
      <trkpt lat="45.88388" lon="6.38027">
        <ele>1695</ele>
        <time>2004-01-19T18:03:57Z</time>
      </trkpt>
      <trkpt lat="45.8829" lon="6.38027">
        <ele>1706</ele>
        <time>2004-01-19T18:03:57Z</time>
      </trkpt>
      <trkpt lat="45.88324" lon="6.3804">
        <ele>1705</ele>
        <time>2004-01-19T18:03:57Z</time>
      </trkpt>
      <trkpt lat="45.88318" lon="6.38007">
        <ele>1701</ele>
        <time>2004-01-19T18:03:57Z</time>
      </trkpt>
      <trkpt lat="45.88313" lon="6.38018">
        <ele>1692</ele>
        <time>2004-01-19T18:03:57Z</time>
      </trkpt>
      <trkpt lat="45.88333" lon="6.38018">
        <ele>1705</ele>
        <time>2004-01-19T18:03:57Z</time>
      </trkpt>
      <trkpt lat="45.8838" lon="6.38074">
        <ele>1698</ele>
        <time>2004-01-19T18:03:57Z</time>
      </trkpt>
      <trkpt lat="45.88498" lon="6.38037">
        <ele>1668</ele>
        <time>2004-01-19T18:03:57Z</time>
      </trkpt>
      <trkpt lat="45.88519" lon="6.38052">
        <ele>1664</ele>
        <time>2004-01-19T18:03:57Z</time>
      </trkpt>
      <trkpt lat="45.8856" lon="6.38123">
        <ele>1644</ele>
        <time>2004-01-19T18:03:57Z</time>
      </trkpt>
      <trkpt lat="45.88605" lon="6.38329">
        <ele>1643</ele>
        <time>2004-01-19T18:03:57Z</time>
      </trkpt>
      <trkpt lat="45.8871" lon="6.38619">
        <ele>1621</ele>
        <time>2004-01-19T18:03:57Z</time>
      </trkpt>
      <trkpt lat="45.88712" lon="6.38771">
        <ele>1599</ele>
        <time>2004-01-19T18:03:57Z</time>
      </trkpt>
      <trkpt lat="45.8874" lon="6.38855">
        <ele>1591</ele>
        <time>2004-01-19T18:03:57Z</time>
      </trkpt>
      <trkpt lat="45.88788" lon="6.38872">
        <ele>1587</ele>
        <time>2004-01-19T18:03:57Z</time>
      </trkpt>
      <trkpt lat="45.88835" lon="6.38849">
        <ele>1577</ele>
        <time>2004-01-19T18:03:57Z</time>
      </trkpt>
      <trkpt lat="45.88843" lon="6.38868">
        <ele>1586</ele>
        <time>2004-01-19T18:03:57Z</time>
      </trkpt>
      <trkpt lat="45.88869" lon="6.38812">
        <ele>1568</ele>
        <time>2004-01-19T18:03:57Z</time>
      </trkpt>
      <trkpt lat="45.89004" lon="6.38803">
        <ele>1577</ele>
        <time>2004-01-19T18:03:57Z</time>
      </trkpt>
      <trkpt lat="45.89122" lon="6.38994">
        <ele>1601</ele>
        <time>2004-01-19T18:03:57Z</time>
      </trkpt>
      <trkpt lat="45.89219" lon="6.39044">
        <ele>1610</ele>
        <time>2004-01-19T18:03:57Z</time>
      </trkpt>
      <trkpt lat="45.89236" lon="6.39106">
        <ele>1617</ele>
        <time>2004-01-19T18:03:57Z</time>
      </trkpt>
      <trkpt lat="45.89272" lon="6.39164">
        <ele>1624</ele>
        <time>2004-01-19T18:03:57Z</time>
      </trkpt>
      <trkpt lat="45.89215" lon="6.392">
        <ele>1627</ele>
        <time>2004-01-19T18:03:57Z</time>
      </trkpt>
      <trkpt lat="45.89133" lon="6.39323">
        <ele>1613</ele>
        <time>2004-01-19T18:03:57Z</time>
      </trkpt>
      <trkpt lat="45.89034" lon="6.39361">
        <ele>1592</ele>
        <time>2004-01-19T18:03:57Z</time>
      </trkpt>
      <trkpt lat="45.88974" lon="6.39421">
        <ele>1584</ele>
        <time>2004-01-19T18:03:57Z</time>
      </trkpt>
      <trkpt lat="45.88923" lon="6.39501">
        <ele>1578</ele>
        <time>2004-01-19T18:03:57Z</time>
      </trkpt>
      <trkpt lat="45.88876" lon="6.39533">
        <ele>1578</ele>
        <time>2004-01-19T18:03:57Z</time>
      </trkpt>
      <trkpt lat="45.88811" lon="6.39651">
        <ele>1572</ele>
        <time>2004-01-19T18:03:57Z</time>
      </trkpt>
      <trkpt lat="45.88779" lon="6.39743">
        <ele>1570</ele>
        <time>2004-01-19T18:03:57Z</time>
      </trkpt>
      <trkpt lat="45.88734" lon="6.3981">
        <ele>1567</ele>
        <time>2004-01-19T18:03:57Z</time>
      </trkpt>
      <trkpt lat="45.88732" lon="6.39868">
        <ele>1568</ele>
        <time>2004-01-19T18:03:57Z</time>
      </trkpt>
      <trkpt lat="45.88689" lon="6.39906">
        <ele>1571</ele>
        <time>2004-01-19T18:03:57Z</time>
      </trkpt>
      <trkpt lat="45.88646" lon="6.39986">
        <ele>1575</ele>
        <time>2004-01-19T18:03:57Z</time>
      </trkpt>
      <trkpt lat="45.88614" lon="6.40012">
        <ele>1574</ele>
        <time>2004-01-19T18:03:57Z</time>
      </trkpt>
      <trkpt lat="45.88541" lon="6.402">
        <ele>1562</ele>
        <time>2004-01-19T18:03:57Z</time>
      </trkpt>
      <trkpt lat="45.88352" lon="6.40496">
        <ele>1533</ele>
        <time>2004-01-19T18:03:57Z</time>
      </trkpt>
      <trkpt lat="45.88294" lon="6.40552">
        <ele>1531</ele>
        <time>2004-01-19T18:03:57Z</time>
      </trkpt>
      <trkpt lat="45.88112" lon="6.40469">
        <ele>1535</ele>
        <time>2004-01-19T18:03:57Z</time>
      </trkpt>
      <trkpt lat="45.88049" lon="6.40458">
        <ele>1531</ele>
        <time>2004-01-19T18:03:57Z</time>
      </trkpt>
      <trkpt lat="45.87944" lon="6.40342">
        <ele>1519</ele>
        <time>2004-01-19T18:03:57Z</time>
      </trkpt>
      <trkpt lat="45.87854" lon="6.40314">
        <ele>1498</ele>
        <time>2004-01-19T18:03:57Z</time>
      </trkpt>
      <trkpt lat="45.87755" lon="6.40321">
        <ele>1482</ele>
        <time>2004-01-19T18:03:57Z</time>
      </trkpt>
      <trkpt lat="45.87738" lon="6.40355">
        <ele>1470</ele>
        <time>2004-01-19T18:03:57Z</time>
      </trkpt>
      <trkpt lat="45.87713" lon="6.40366">
        <ele>1466</ele>
        <time>2004-01-19T18:03:57Z</time>
      </trkpt>
    </trkseg>
  </trk>
</gpx>